Terug naar catalogus

KINEIS-5A

ActiefCommunicatieSSO
NORAD 62084·PAYLOAD·🇫🇷 France

Gelanceerd Nov 25, 2024 vanaf Rocket Lab Launch Complex 1

Loading…

Volgende Passages (komende 24 uur)

TLE

VersSource: Space-Track

Epoch: Sep 14, 2026, 14:04 UTC

1 62084U 24219D   26257.58651693 -.00002285  00000-0 -35428-3 0  9997
2 62084  97.9043  54.3127 0005019  36.6223 323.5327 14.72276712 96923

Volg KINEIS-5A in realtime met AllMySat

Download on the App Store